Location: Bannatyne
(13.0833°N, 59.5333°W)
Time: 11:34:21
(UTC+00:00)

Transit 2A - Pass Details

Date: 28 January 2020
Orbit: 600 x 959 km, 66.7° (Epoch: 22 February)

Event Time Altitude Azimuth Distance (km) Brightness Sun altitude
Rises 21:01:14 0° 175° (S) 3,106 9.4 12.0°
Reaches altitude 10° 21:04:07 10° 160° (SSE) 2,124 8.4 11.3°
Maximum altitude 21:07:46 22° 110° (ESE) 1,423 7.1 10.5°
Drops below altitude 10° 21:11:13 10° 59° (ENE) 1,997 7.6 9.7°
Sets 21:13:49 0° 44° (NE) 2,870 8.4 9.1°
